Updated:20-Oct-2021 7:49pm
*
Night time, DryTemperature: 60.2°F -1.5°F/hrHumidity: 32%Dew Point: 30.2°FWind: WSW 1.9 mphGust: 1.9 mphBarometer: 30.089 inHg stable Rain Today: 0.00 inUV Index: 0.0 none


You are watching: Earthquake las vegas today just now





See more: Tips For New Year'S Eve At Disney World New Years Eve 2020

Style Options

Style: BlackBlueDarkFallGreenIce TeaMochaOrangePastelPurpleRedSalmonSilverSpringTaupeTealWidescreen:On | turn off


Enable JavaScript to see the Google Map.

Earthquakes in the previous 7 days of magnitude 2.0 or greater within 250 mi Update time = Wed, 20-Oct-2021 19:25:44 PDT

Epicenter NearMagnitudeDistance to EpicenterTimeLink
4 mi SW that Niland, CA 2.0 000336209 mi 1634777455Wed, 20-Oct-2021 17:50:55 PDT map
7 mi E that Ridgecrest, CA 2.0 000210131 mi 1634773183Wed, 20-Oct-2021 16:39:43 PDT map
12 km WSW of Hiko, Nevada 2.1 00014892 mi 1634767417Wed, 20-Oct-2021 15:03:37 PDT map
6 mi ENE of Coso Junction, CA 2.0 000226140 mi 1634765237Wed, 20-Oct-2021 14:27:17 PDT map
13 mi ENE of Olancha, CA 2.1 000221137 mi 1634699902Tue, 19-Oct-2021 20:18:22 PDT map
9 mi ESE that Olancha, CA 2.9 000227141 mi 1634692534Tue, 19-Oct-2021 18:15:34 PDT map
18 mi SE that Bodie, CA 2.7 000366228 mi 1634689088Tue, 19-Oct-2021 17:18:08 PDT map
9 mi ESE the Olancha, CA 2.0 000227141 mi 1634671665Tue, 19-Oct-2021 12:27:45 PDT map
6 mi SSW of Idyllwild, CA 2.8 000312194 mi 1634670670Tue, 19-Oct-2021 12:11:10 PDT map
6 mi SSW of Idyllwild, CA 2.0 000312194 mi 1634667105Tue, 19-Oct-2021 11:11:45 PDT map
7 mi SSE that Bodie, CA 2.3 000384239 mi 1634631084Tue, 19-Oct-2021 01:11:24 PDT map
3 mi N of Moreno Valley, CA 2.2 000303188 mi 1634579137Mon, 18-Oct-2021 10:45:37 PDT map
21 mi ESE of large Pine, CA 2.5 000250156 mi 1634542572Mon, 18-Oct-2021 00:36:12 PDT map
8 mi W of Salton City, CA 2.3 000332206 mi 1634529524Sun, 17-Oct-2021 20:58:44 PDT map
10 mi ESE of Olancha, CA 2.5 000227141 mi 1634517709Sun, 17-Oct-2021 17:41:49 PDT map
9 mi ESE of Olancha, CA 2.7 000227141 mi 1634506866Sun, 17-Oct-2021 14:41:06 PDT map
4 mi S the Redlands, CA 2.4 000298185 mi 1634501834Sun, 17-Oct-2021 13:17:14 PDT map
4 mi E of Mammoth Lakes, CA 2.1 000354220 mi 1634499243Sun, 17-Oct-2021 12:34:03 PDT map
9 mi ESE of Olancha, CA 2.0 000227141 mi 1634490932Sun, 17-Oct-2021 10:15:32 PDT map
10 mi ESE the Olancha, CA 2.4 000226141 mi 1634486860Sun, 17-Oct-2021 09:07:40 PDT map
9 mi ESE of Olancha, CA 2.3 000227141 mi 1634478363Sun, 17-Oct-2021 06:46:03 PDT map
9 mi ESE the Olancha, CA 4.0 000227141 mi 1634476740Sun, 17-Oct-2021 06:19:00 PDT map
37 km SSE the Goldfield, Nevada 2.3 000206128 mi 1634441883Sat, 16-Oct-2021 20:38:03 PDT map
40 km NNE of Beatty, Nevada 2.3 00015999 mi 1634437027Sat, 16-Oct-2021 19:17:07 PDT map
6 mi SW that Toms Place, CA 2.8 000336209 mi 1634424940Sat, 16-Oct-2021 15:55:40 PDT map
2 mi WSW of Salton City, CA 2.4 000331206 mi 1634401889Sat, 16-Oct-2021 09:31:29 PDT map
30 km SSE that Mina, Nevada 2.9 000318198 mi 1634365910Fri, 15-Oct-2021 23:31:50 PDT map
16 mi SE that Bodfish, CA 2.6 000279173 mi 1634358019Fri, 15-Oct-2021 21:20:19 PDT map
31 kilometres SE the Mina, Nevada 2.1 000315195 mi 1634326341Fri, 15-Oct-2021 12:32:21 PDT map
30 km SSE that Mina, Nevada 3.7 000318198 mi 1634301364Fri, 15-Oct-2021 05:36:04 PDT map
11 mi E that Ridgecrest, CA 2.5 000205128 mi 1634274893Thu, 14-Oct-2021 22:14:53 PDT map
6 mi E of Pala, CA 2.0 000349217 mi 1634266817Thu, 14-Oct-2021 20:00:17 PDT map
6 mi W the Palomar Observatory, CA 2.0 000349217 mi 1634263446Thu, 14-Oct-2021 19:04:06 PDT map
54 km SSE of Eureka, Nevada 3.6 000320199 mi 1634256272Thu, 14-Oct-2021 17:04:32 PDT map
28 mi NE of Holtville, CA 2.0 000351218 mi 1634246159Thu, 14-Oct-2021 14:15:59 PDT map
9 mi WSW that Searles Valley, CA 2.2 000206128 mi 1634234185Thu, 14-Oct-2021 10:56:25 PDT map
33 kilometres SE that Mina, Nevada 2.0 000312194 mi 1634196023Thu, 14-Oct-2021 00:20:23 PDT map

37 earthquakes found. Click on location or map web links for much more details native the USGS